OSCAR 24 (15936 NORAD) Tracking and Keplerian Element Data

This shows tracking and keplerian element data for the satellite.

Feedback or suggestion? Click here.




ElementValue
Catalog15936
NameOSCAR 24
Epoch Orbit92505
Epoch Day35.14149269
Epoch Year2025
RAAN86.8451
Inclination90.18
Eccentricity0.0167101
Argument of Perigee248.9226
Mean Anonmoly164.2144
Mean Motion13.35866187
Decay Rate1.4E-06
L11 15936U 85066B 25035.14149269 .00000140 00000+0 24101-3 0 9995
L22 15936 90.1800 86.8451 0167101 248.9226 164.2144 13.35866187925056



Live tracking and technical data element details for OSCAR 24 (NORAD 15936). OSCAR 24 can be tracked NOW for your location showing map with azimuth and elevation plus other details from your city location.







IsCatalogInMostPopularTable: catalog: 15936, numindb: 332
Update: records affected: 1



GetName: 15936 OSCAR 24

Hit Count: updated at: Fri, 16 May 2025 10:46:21 GMT